Regional Weather Roundup
Issued by NWS

Home | Current Version | Previous Version | Text Only | Print | Product List | Glossary On
Versions: 1 2 3 4 5 6 7 8 9 10 11 12 13 14 15 16 17 18 19 20 21 22 23 24 25 26 27 28 29 30 31 32 33 34 35 36 37 38 39 40 41 42 43 44 45 46 47 48 49 50
000
ASUS43 KLMK 162110
RWRKY
KENTUCKY REGIONAL WEATHER ROUNDUP
NATIONAL WEATHER SERVICE LOUISVILLE KY
400 PM EST TUE JAN 16 2018

NOTE "FAIR" INDICATES FEW OR NO CLOUDS BELOW 12,000 FEET
WITH NO SIGNIFICANT WEATHER AND/OR OBSTRUCTIONS TO VISIBILITY.

KYZ001>023-026-027-061>063-070>075-162200-
WESTERN AND SOUTH CENTRAL KENTUCKY

CITY           SKY/WX    TMP DP  RH WIND       PRES   REMARKS
PADUCAH        FAIR      12  -3  51 W6        30.63S WCI   3
HENDERSON      FAIR      11  -2  56 NW7       30.64R WCI   0
OWENSBORO      FAIR      10  -2  58 NW9       30.63R WCI  -3
HOPKINSVILLE   FAIR      10   0  61 NW6       30.59R WCI   1
BOWLING GREEN  FAIR      13   1  59 W7        30.59R WCI   3
GLASGOW        FAIR      14   3  60 W8        30.55S WCI   3
$$

KYZ024-025-028>034-038-045-046-053-162200-
NORTH CENTRAL KENTUCKY

CITY           SKY/WX    TMP DP  RH WIND       PRES   REMARKS
LOUISVILLE/SDF FAIR      14   1  56 W8        30.56R WCI   3
LOUISVILLE/LOU FAIR      13   1  59 W9        30.56R WCI   1
FORT KNOX      FAIR      10  -2  58 W9        30.53R WCI  -3
$$

KYZ035>037-039>044-047>052-055>060-089>105-162200-
NORTHEAST KENTUCKY

CITY           SKY/WX    TMP DP  RH WIND       PRES   REMARKS
LEXINGTON      FAIR      12   2  64 NW8       30.50R WCI   0
COVINGTON      FAIR      11   1  64 W6        30.48R WCI   1
FRANKFORT      FAIR      12  -1  56 W7        30.51R WCI   1
$$

KYZ054-064>069-076>088-106>120-162200-
SOUTHEAST KENTUCKY

CITY           SKY/WX    TMP DP  RH WIND       PRES   REMARKS
JACKSON        SNOW      14   9  80 W6        30.42R WCI   5
LONDON         LGT SNOW  14   8  77 W8        30.46R WCI   3
SOMERSET       LGT SNOW  12   7  79 N12G17    30.53R WCI  -2
MIDDLESBORO    FLURRIES  22  17  81 CALM      30.43R
MONTICELLO     LGT SNOW  13   8  81 VRB6      30.53R WCI   4
$$




USA.gov is the U.S. government's official web portal to all federal, state and local government web resources and services.